{"data":{"norad_id":63551,"epoch":"2026-09-19T17:56:34.892448Z","epoch_age_seconds":220489,"freshness":"STALE","line1":"1 63551U 25075D   26262.74762607  .00174995  00000+0  13382-2 0  9999","line2":"2 63551  42.9998  63.6600 0001519 247.0551 113.0156 15.70850456 83777","mean_motion":15.70850456,"eccentricity":0.0001519,"inclination_deg":42.9998,"raan_deg":63.66,"arg_perigee_deg":247.0551,"mean_anomaly_deg":113.0156,"bstar":0.0013382,"rev_number":8377,"period_min":91.670088295152,"perigee_km":355.44219045885,"apogee_km":357.48816260008,"semimajor_km":6734.6021765295,"source":"CELESTRAK","updated_at":"2026-09-21T09:00:35.019659Z"}}